ELECTRON KICK STAGE R/B, 62928

Orbit data source: Space-Track

ELECTRON KICK STAGE R/B, 62928 is space debris in SSO originally from a launch on Sat, 08 Feb 2025 UTC via an ELECTRON launch vehicle from the Rocket Lab Launch Complex (RLLC). Debris objects in space refer to the collection of defunct objects orbiting the Earth. Examples of debris include non-operational satellites, rocket bodies, and fragments generated from explosions, collisions, or faulty payload assembly.

Loading next visibility...
Identifier
62928, 2025-028A
Orbit
SSO
Country
Flag of USUS
Related business
Manufacturer
Rocket Lab
Mission
Spacecraft
Bus & Motor
KICK STAGE, CURIE
Mass
~50 kg wet, ~50 kg dry
Launch date (UTC)
2025-02-08 (7 months ago)
Launch vehicle
ELECTRON
Launch site
Rocket Lab Launch Complex (RLLC)
Object type
Payload
Rocket body
Debris
Shape & HBR
Trunc Cone, 0.7 m
Radar Cross Section
0.760 m², Medium (>0.1 m² and < 1m²)

Expand to show TLE details & history
Last TLE update: 9 hours ago

TLE from 9 hours ago
0 ELECTRON KICK STAGE R/B
1 62928U 25028A   25258.15483882  .00003530  00000-0  39037-3 0  9991
2 62928  97.9305 313.9220 0041775  35.5283 324.8701 14.87402987 32439
Epoch: 2025-09-15T03:42Z
TLE epoch observation values (Epoch: 2025-09-15T03:42:58.074Z)
Latitude
-0.00007°
Longitude
-96.18352°
Altitude
585.258 km
Speed
7.581 km/s
True Right ascension
20h 55m 41s
True Declination
0° 00' 00"
Sunlit
Object was in full shadow at epoch
Visualization orbit readout
Latitude
Unknown
Longitude
Unknown
Altitude
Unknown
Speed
Unknown
Apparent Right ascension
Unknown
Apparent Declination
Unknown
Sunlit
N/A
Visualization observer readout
Local Sidereal Time
04:51:35
Azimuth
Unknown
Elevation
Unknown
Doppler factor
Unknown
Orbital elements
Apogee altitude
632.25 km
Perigee altitude
573.922 km
Semi-major axis
6,981.223 km
Eccentricity
0.00418
Inclination
97.9305°
RAAN
313.922°
Arg. of periapsis
35.5283°
True anomaly
324.59346°
Mean anomaly
324.8701°
Eccentric anomaly
324.7319°
Mean motion
3.72088 °/min
Orbital period
96.75 mins
BSTAR
0.00039037
Loading maneuver chart data...
Computing Atmospheric mass density...
Loading historical data...
Loading historical data...
Loading historical data...
Loading historical data...
Loading historical data...
Loading historical data...
Loading historical data...

Documentation

Showing up to 5 results
|